User: anonymous   Login
Location: Unspecified
(0.0000°N, 0.0000°E)
Time: 19:46:58
(UTC+00:00)
Language:

TIGRISAT - Orbit

View from above orbital plane
View from above orbital plane
View from above satellite
View from above satellite

Ground track
Ground track

The orbit data is extracted from the following two-line orbital elements,

1 40043U 14033AK  19341.54048549  .00000089  00000-0  20687-4 0  9993
2 40043  97.7313 201.8173 0058532 261.9567  97.4999 14.74319393293920
Epoch (UTC): 07 December 2019 12:58:17
Eccentricity: 0.0058532
inclination: 97.7313°
perigee height: 606 km
apogee height: 688 km
right ascension of ascending node: 201.8173°
argument of perigee: 261.9567°
revolutions per day: 14.74319393
mean anomaly at epoch: 97.4999°
orbit number at epoch: 29392

The dashed part of the orbit path shows where the satellite is in the earth's shadow,  

DLR